Date,TemperatureHighF,TemperatureAvgF,TemperatureLowF,DewpointHighF,DewpointAvgF,DewpointLowF,HumidityHigh,HumidityAvg,HumidityLow,PressureMaxIn,PressureMinIn,WindSpeedMaxMPH,WindSpeedAvgMPH,GustSpeedMaxMPH,PrecipitationSumIn
2013-1-1,37.9,31.3,21.6,29.0,21.3,11.0,84,67,50,29.83,29.65,8,2,0,0.05
2013-1-2,32.4,21.8,11.2,15.0,9.3,3.0,80,60,46,29.99,29.81,7,1,0,0.04
2013-1-3,25.3,16.0,5.8,11.0,0.2,-6.0,77,51,30,30.05,29.93,8,1,0,0.00
2013-1-4,39.1,28.7,16.2,24.0,18.8,11.0,82,68,45,29.92,29.74,5,1,0,0.06
2013-1-5,42.8,32.0,22.2,24.0,20.1,18.0,84,63,41,30.17,29.78,6,1,0,0.02
2013-1-6,42.2,32.1,22.7,34.0,27.3,19.0,97,83,63,30.14,29.84,5,0,0,0.03
2013-1-7,41.5,30.9,24.1,32.0,25.6,22.0,97,83,49,30.32,29.88,6,1,0,0.01
2013-1-8,47.7,35.4,21.1,32.0,28.2,19.0,96,77,50,30.29,30.19,8,1,0,0.00
2013-1-9,44.5,35.2,22.2,38.0,30.7,21.0,98,84,65,30.31,29.91,7,0,0,0.01
2013-1-10,47.3,39.9,27.6,32.0,23.9,21.0,77,55,37,30.44,29.98,9,2,0,0.00
2013-1-11,41.3,33.6,23.6,38.0,28.0,20.0,97,80,66,30.43,30.13,6,1,0,0.11
2013-1-12,46.1,42.4,38.3,46.0,42.3,38.0,100,99,97,30.14,30.03,6,1,0,0.06
2013-1-13,52.9,47.3,42.6,53.0,47.3,43.0,100,100,98,30.07,29.93,5,0,0,0.02
2013-1-14,61.6,52.4,40.1,56.0,46.1,31.0,100,82,45,30.16,29.85,7,1,0,0.04
2013-1-15,42.1,37.8,34.9,38.0,32.6,27.0,98,83,62,30.21,30.13,4,0,0,0.12
2013-1-16,36.5,33.8,32.7,35.0,32.3,27.0,100,95,70,30.15,29.70,6,0,0,0.22
2013-1-17,42.9,35.9,31.0,38.0,29.5,19.0,100,80,57,29.99,29.77,6,0,0,0.34
2013-1-18,31.9,23.5,16.7,19.0,2.2,-7.0,64,41,26,30.39,29.94,10,2,0,0.00
2013-1-19,46.2,35.9,18.4,34.0,25.2,7.0,77,66,51,30.33,29.86,11,2,0,0.05
2013-1-20,55.4,44.6,28.8,37.0,28.5,9.0,75,55,33,29.84,29.46,9,2,0,0.00
2013-1-21,30.0,26.3,20.6,23.0,11.0,4.0,91,55,33,30.02,29.69,4,0,0,0.00
2013-1-22,26.7,21.0,10.9,23.0,8.9,-4.0,93,63,31,29.99,29.66,10,1,0,0.10
2013-1-23,17.7,11.4,6.1,1.0,-5.5,-9.0,68,48,35,30.06,29.98,10,1,0,0.00
2013-1-24,19.5,11.0,1.3,-4.0,-8.2,-12.0,63,43,27,30.13,29.96,9,2,0,0.00
2013-1-25,26.6,16.7,5.4,13.0,-4.0,-10.0,82,42,22,30.21,29.96,6,0,0,0.00
2013-1-26,26.4,17.9,8.8,14.0,3.8,-10.0,86,58,29,30.14,29.90,9,2,0,0.00
2013-1-27,31.3,20.2,11.6,4.0,0.4,-4.0,65,44,27,30.37,30.14,8,2,0,0.00
2013-1-28,32.9,23.6,11.9,30.0,13.8,0.0,98,70,28,30.36,29.90,6,0,0,0.00
2013-1-29,34.9,32.1,29.1,34.0,31.4,28.0,100,97,93,30.10,29.90,2,0,0,0.07
2013-1-30,60.2,50.3,33.7,58.0,49.2,34.0,100,96,87,30.07,29.43,12,3,0,0.05
2013-1-31,60.9,49.2,31.3,59.0,38.4,13.0,100,69,37,29.52,28.94,13,4,0,0.61
2013-2-1,33.8,29.1,22.4,16.0,9.3,3.0,57,44,28,30.00,29.53,8,2,0,0.00
2013-2-2,30.7,25.0,16.4,16.0,8.4,2.0,63,50,33,30.17,29.96,8,1,0,0.00
2013-2-3,31.2,25.9,20.5,24.0,20.4,15.0,91,80,63,29.97,29.64,6,1,0,0.01
2013-2-4,32.4,24.7,17.3,21.0,12.2,4.0,90,62,34,29.87,29.63,8,1,0,0.01
2013-2-5,26.3,24.4,21.1,24.0,15.8,9.0,92,70,56,29.94,29.84,5,1,0,0.00
2013-2-6,40.8,30.9,25.6,30.0,20.9,5.0,96,70,41,30.19,29.82,6,1,0,0.04
2013-2-7,30.7,24.1,15.7,14.0,5.1,-1.0,70,46,27,30.43,30.20,7,1,0,0.00
2013-2-8,32.9,30.9,22.7,33.0,27.4,14.0,100,87,67,30.38,29.48,25,6,0,0.11
2013-2-9,29.1,17.5,13.1,29.0,13.9,8.0,100,86,80,30.08,29.34,0,0,0,0.12
2013-2-10,32.9,20.0,5.6,31.0,15.8,2.0,96,84,68,30.30,30.09,0,0,0,0.29
2013-2-11,44.8,33.1,13.3,45.0,32.4,11.0,100,97,89,30.27,29.51,7,1,0,0.58
2013-2-12,45.1,37.8,29.5,42.0,31.3,24.0,100,80,49,29.80,29.52,6,1,0,0.00
2013-2-13,44.9,34.2,25.4,26.0,23.9,20.0,87,68,44,29.79,29.59,5,0,0,0.00
2013-2-14,45.7,34.6,27.5,30.0,24.6,17.0,97,71,35,29.93,29.61,9,1,0,0.10
2013-2-15,49.1,37.6,26.9,39.0,31.7,25.0,99,82,45,29.94,29.84,7,1,0,0.00
2013-2-16,37.2,34.1,31.0,37.0,32.6,29.0,100,94,76,29.86,29.57,7,1,0,0.04
2013-2-17,31.2,22.4,17.5,28.0,15.0,3.0,92,74,49,29.58,29.27,14,4,0,0.00
2013-2-18,33.2,23.1,14.6,7.0,2.3,-2.0,58,42,24,30.08,29.59,10,2,0,0.04
2013-2-19,48.9,37.1,19.2,44.0,26.5,1.0,100,68,44,30.09,29.50,7,1,0,0.56
2013-2-20,42.6,33.6,25.8,43.0,21.6,9.0,100,65,36,29.70,29.46,8,2,0,0.00
2013-2-21,35.2,28.8,25.4,16.0,13.5,11.0,65,53,39,30.05,29.70,9,2,0,0.00
2013-2-22,37.6,31.8,26.0,26.0,21.6,15.0,80,66,55,30.27,30.07,7,2,0,0.00
2013-2-23,39.3,34.6,31.0,37.0,29.4,26.0,99,81,65,30.24,29.78,8,2,0,0.34
2013-2-24,40.8,36.6,31.2,41.0,36.4,31.0,100,99,96,29.79,29.55,12,3,0,1.08
2013-2-25,41.8,34.5,29.1,32.0,29.6,25.0,99,84,54,30.16,29.79,6,1,0,0.13
2013-2-26,44.3,36.0,26.1,34.0,27.9,23.0,97,75,46,30.24,30.05,9,2,0,0.00
2013-2-27,43.8,41.7,38.0,44.0,40.8,34.0,100,96,83,30.05,29.46,16,5,0,1.37
2013-2-28,47.9,39.3,35.3,41.0,37.1,35.0,100,92,69,29.56,29.43,2,0,0,0.00
2013-3-1,42.3,38.3,35.3,37.0,31.3,27.0,99,77,57,29.58,29.43,5,1,0,0.00
2013-3-2,45.5,38.4,32.4,31.0,27.5,25.0,79,66,49,29.59,29.53,5,1,0,0.00
2013-3-3,44.5,37.3,32.4,31.0,27.5,25.0,94,69,49,29.55,29.46,5,1,0,0.00
2013-3-4,42.2,35.4,29.0,31.0,24.3,21.0,94,65,45,29.63,29.48,8,2,0,0.01
2013-3-5,42.8,36.4,29.4,32.0,27.2,22.0,96,70,57,29.97,29.63,9,2,0,0.00
2013-3-6,41.5,37.1,31.9,37.0,33.6,30.0,98,87,69,29.99,29.90,19,6,0,0.25
2013-3-7,36.5,34.1,32.7,34.0,32.8,32.0,99,95,84,29.89,29.84,16,7,0,1.89
2013-3-8,38.9,33.5,31.9,35.0,32.0,27.0,100,95,64,30.01,29.79,12,3,0,0.32
2013-3-9,39.2,35.3,27.9,30.0,28.3,27.0,97,76,65,30.25,30.00,16,4,0,0.89
2013-3-10,41.8,34.8,27.6,35.0,30.2,27.0,99,85,66,30.31,30.24,6,1,0,0.05
2013-3-11,49.8,40.5,31.6,40.0,36.3,30.0,96,86,66,30.25,30.08,5,1,0,0.00
2013-3-12,55.4,49.6,41.2,54.0,48.3,40.0,100,95,81,30.09,29.66,14,3,0,0.71
2013-3-13,55.1,45.0,30.3,53.0,36.8,20.0,100,76,37,29.70,29.60,5,1,0,0.01
2013-3-14,40.6,31.2,24.1,25.0,14.0,4.0,87,51,35,29.75,29.62,7,2,0,0.00
2013-3-15,42.6,31.9,21.1,26.0,12.0,4.0,77,46,21,29.79,29.56,6,2,0,0.00
2013-3-16,41.2,34.3,26.9,26.0,16.6,5.0,80,52,22,29.77,29.60,7,1,0,0.00
2013-3-17,41.3,31.6,22.5,22.0,12.7,0.0,81,50,23,30.21,29.77,9,1,0,0.00
2013-3-18,39.5,29.2,18.1,26.0,10.3,-2.0,86,47,28,30.37,30.16,7,2,0,0.00
2013-3-19,39.1,34.3,29.4,39.0,33.6,26.0,100,97,87,30.16,29.44,15,5,0,1.14
2013-3-20,41.9,32.8,25.6,30.0,21.5,18.0,96,66,39,29.73,29.59,9,2,0,0.01
2013-3-21,38.3,30.7,24.4,29.0,24.9,20.0,97,81,51,29.74,29.51,7,1,0,0.00
2013-3-22,42.3,33.7,25.3,29.0,22.9,16.0,97,68,36,29.66,29.51,7,1,0,0.23
2013-3-23,45.8,35.7,26.6,24.0,19.7,16.0,81,55,31,29.70,29.55,8,2,0,0.00
2013-3-24,49.9,37.7,26.9,26.0,22.3,18.0,81,57,33,29.73,29.63,6,1,0,0.00
2013-3-25,45.4,37.2,29.0,35.0,28.9,25.0,89,73,47,29.67,29.40,16,4,0,0.03
2013-3-26,51.7,40.6,31.9,33.0,26.2,21.0,92,60,31,29.68,29.39,10,2,0,0.04
2013-3-27,56.7,41.3,25.0,31.0,23.0,19.0,83,53,27,29.76,29.64,8,2,0,0.00
2013-3-28,48.6,41.9,37.0,37.0,32.6,25.0,96,72,42,29.93,29.76,11,2,0,0.03
2013-3-29,58.4,45.4,29.0,36.0,31.5,24.0,96,62,28,29.95,29.87,6,1,0,0.00
2013-3-30,59.0,46.0,31.8,33.0,28.2,17.0,89,54,20,30.00,29.91,6,1,0,0.00
2013-3-31,60.7,44.2,26.3,44.0,28.9,21.0,94,62,22,30.04,29.68,11,2,0,0.08
2013-4-1,61.5,48.7,34.9,47.0,40.1,14.0,100,75,39,29.71,29.44,10,3,0,0.05
2013-4-2,44.3,35.1,26.3,19.0,12.9,5.0,66,42,22,29.88,29.71,7,2,0,0.00
2013-4-3,47.7,37.4,29.4,16.0,12.4,8.0,55,38,20,30.07,29.85,11,2,0,0.00
2013-4-4,54.5,40.3,26.9,32.0,18.8,11.0,78,46,19,30.21,30.00,6,1,0,0.00
2013-4-5,59.3,46.6,37.8,39.0,29.6,18.0,79,55,22,29.99,29.54,6,1,0,0.00
2013-4-6,47.6,39.5,30.4,26.0,12.5,1.0,73,37,16,30.25,29.77,9,2,0,0.00
2013-4-7,54.2,42.8,24.1,42.0,30.2,17.0,91,65,24,30.25,29.95,14,2,0,0.00
2013-4-8,67.8,54.0,44.3,46.0,41.5,36.0,97,66,32,30.03,29.88,8,2,0,0.00
2013-4-9,77.2,56.6,46.4,53.0,44.7,37.0,98,69,27,30.01,29.75,10,2,0,0.00
2013-4-10,62.6,49.4,44.2,47.0,44.1,42.0,98,83,56,29.92,29.78,9,2,0,0.24
2013-4-11,53.1,47.4,44.2,47.0,40.4,32.0,100,78,57,30.03,29.73,8,2,0,0.01
2013-4-12,44.1,40.8,38.0,39.0,35.1,29.0,98,81,61,30.06,29.65,13,5,0,0.59
2013-4-13,52.8,43.4,38.0,41.0,38.4,36.0,98,84,56,29.85,29.63,7,2,0,0.04
2013-4-14,56.0,44.6,34.9,43.0,33.4,24.0,99,69,36,30.11,29.84,9,1,0,0.00
2013-4-15,58.3,44.6,30.0,36.0,31.7,26.0,91,64,35,30.32,30.12,8,1,0,0.00
2013-4-16,62.3,49.9,33.8,48.0,40.4,33.0,98,73,39,30.32,30.02,19,2,0,0.00
2013-4-17,69.3,57.7,42.5,52.0,41.9,29.0,93,61,23,30.23,29.99,5,1,0,0.00
2013-4-18,63.7,50.5,34.7,46.0,34.8,25.0,97,61,27,30.33,30.08,10,2,0,0.00
2013-4-19,72.3,62.8,52.3,65.0,59.4,47.0,100,89,68,30.07,29.63,9,3,0,0.09
2013-4-20,65.0,54.9,45.4,64.0,45.3,26.0,100,74,41,30.10,29.56,7,2,0,0.57
2013-4-21,53.3,42.6,32.7,28.0,23.3,19.0,80,48,28,30.59,30.12,8,2,0,0.00
2013-4-22,49.9,41.3,28.5,36.0,30.4,24.0,94,67,38,30.64,30.48,20,4,0,0.00
2013-4-23,43.3,42.0,40.1,43.0,40.2,32.0,99,93,72,30.48,29.98,16,5,0,0.39
2013-4-24,69.8,51.6,42.8,52.0,45.3,42.0,98,82,48,29.97,29.75,16,3,0,0.02
2013-4-25,66.1,54.2,39.6,52.0,41.0,26.0,97,67,23,30.16,29.79,7,2,0,0.09
2013-4-26,60.4,48.1,34.6,42.0,38.3,33.0,97,72,43,30.33,30.16,9,3,0,0.00
2013-4-27,64.0,49.4,35.6,45.0,35.1,29.0,100,64,31,30.33,30.22,5,1,0,0.00
2013-4-28,68.4,52.1,34.6,44.0,34.6,26.0,93,57,25,30.26,30.16,10,1,0,0.00
2013-4-29,67.3,53.4,41.6,50.0,34.7,15.0,98,58,18,30.20,30.13,8,1,0,0.00
2013-4-30,67.8,51.7,33.5,41.0,29.0,16.0,92,50,14,30.28,30.17,8,1,0,0.00
2013-5-1,65.5,51.1,32.9,45.0,35.3,29.0,90,59,28,30.38,30.28,10,2,0,0.00
2013-5-2,75.6,53.7,37.8,48.0,40.2,33.0,97,68,25,30.38,30.26,10,2,0,0.00
2013-5-3,54.8,46.9,38.3,45.0,40.5,37.0,98,79,63,30.41,30.28,14,3,0,0.00
2013-5-4,55.1,44.8,32.4,46.0,37.2,32.0,100,77,51,30.27,30.22,10,3,0,0.00
2013-5-5,56.9,45.9,31.3,45.0,38.0,31.0,99,77,53,30.23,30.16,11,2,0,0.00
2013-5-6,71.5,53.3,37.2,51.0,45.3,36.0,100,78,45,30.20,30.07,8,1,0,0.00
2013-5-7,77.4,60.6,44.9,59.0,52.4,45.0,100,78,48,30.10,30.02,11,1,0,0.00
2013-5-8,73.7,63.0,52.2,64.0,57.9,52.0,100,85,60,30.10,29.96,12,3,0,0.18
2013-5-9,67.1,61.0,57.3,62.0,59.6,57.0,100,95,79,29.95,29.79,7,1,0,0.26
2013-5-10,81.4,66.1,56.2,61.0,55.8,51.0,100,73,35,29.87,29.80,6,1,0,0.00
2013-5-11,71.5,61.9,57.0,62.0,59.1,53.0,100,91,65,29.85,29.63,8,1,0,0.16
2013-5-12,73.2,61.0,46.2,64.0,54.0,34.0,100,80,47,29.74,29.48,5,1,0,0.05
2013-5-13,62.7,51.1,37.0,39.0,32.6,26.0,88,53,26,29.93,29.74,5,1,0,0.00
2013-5-14,59.3,49.4,34.9,37.0,31.6,26.0,92,54,28,29.96,29.88,14,1,0,0.00
2013-5-15,65.6,51.4,34.6,54.0,40.0,29.0,94,70,27,29.97,29.60,9,2,0,0.03
2013-5-16,83.4,65.2,48.2,56.0,47.6,35.0,100,61,18,29.70,29.56,5,1,0,0.00
2013-5-17,69.1,57.8,44.9,49.0,43.0,36.0,93,61,31,30.13,29.71,8,1,0,0.00
2013-5-18,72.7,57.5,40.9,50.0,45.1,36.0,99,69,27,30.22,30.14,8,1,0,0.00
2013-5-19,73.2,59.2,45.8,55.0,49.8,45.0,100,75,40,30.26,30.14,4,1,0,0.08
2013-5-20,82.8,67.6,55.4,68.0,62.2,55.0,100,85,50,30.14,29.82,4,0,0,0.03
2013-5-21,87.4,64.9,52.5,69.0,60.2,53.0,100,87,51,29.89,29.75,11,1,0,0.24
2013-5-22,70.3,58.7,51.0,64.0,56.4,51.0,100,92,76,29.92,29.80,8,1,0,0.03
2013-5-23,73.9,66.4,61.0,68.0,64.6,61.0,100,94,80,29.84,29.75,7,2,0,0.04
2013-5-24,67.9,63.0,52.2,66.0,62.5,52.0,100,98,91,29.75,29.58,12,1,0,0.61
2013-5-25,53.9,49.7,41.8,53.0,48.7,42.0,100,96,86,29.69,29.60,10,2,0,0.38
2013-5-26,59.3,48.8,39.9,44.0,40.8,36.0,100,77,42,30.01,29.64,7,2,0,0.02
2013-5-27,73.2,57.3,39.1,48.0,40.2,32.0,100,60,24,30.08,29.98,7,1,0,0.00
2013-5-28,75.3,59.8,40.8,56.0,46.4,40.0,99,66,31,30.14,30.08,10,1,0,0.00
2013-5-29,74.7,63.7,58.0,67.0,61.2,56.0,100,92,72,30.12,29.91,6,1,0,0.91
2013-5-30,88.0,74.6,62.0,72.0,67.2,62.0,100,80,50,30.00,29.91,5,0,0,0.08
2013-5-31,92.1,77.7,62.1,74.0,65.9,61.0,100,70,40,30.00,29.87,8,0,0,0.00
2013-6-1,88.2,75.7,64.2,70.0,65.1,61.0,96,72,46,29.91,29.80,8,1,0,0.00
2013-6-2,84.5,72.7,64.2,68.0,64.3,62.0,94,76,51,29.83,29.71,8,1,0,0.00
2013-6-3,71.1,66.4,63.4,70.0,65.8,62.0,100,97,89,29.77,29.69,5,0,0,0.74
2013-6-4,71.5,62.2,49.9,63.0,47.4,42.0,100,62,36,29.99,29.72,6,1,0,0.00
2013-6-5,74.6,60.6,45.2,53.0,48.0,43.0,100,68,34,30.10,30.00,5,0,0,0.00
2013-6-6,73.0,62.1,50.8,59.0,51.5,44.0,99,72,39,30.11,30.01,9,1,0,0.00
2013-6-7,60.5,57.2,55.0,60.0,56.1,52.0,100,96,80,30.02,29.70,8,2,0,2.69
2013-6-8,76.8,63.7,55.6,67.0,60.1,56.0,100,89,64,29.91,29.48,9,1,0,1.06
2013-6-9,80.5,68.3,55.0,63.0,57.8,53.0,100,73,39,30.08,29.91,6,0,0,0.00
2013-6-10,71.6,62.2,55.4,62.0,58.6,55.0,100,89,58,30.11,29.93,7,1,0,0.75
2013-6-11,71.8,62.2,54.1,67.0,61.2,54.0,100,97,76,29.92,29.46,9,2,0,1.14
2013-6-12,71.8,61.8,53.3,62.0,56.1,52.0,100,83,51,29.72,29.47,9,2,0,0.01
2013-6-13,66.4,57.4,50.1,60.0,55.2,50.0,100,93,70,29.74,29.55,9,1,0,0.34
2013-6-14,68.3,58.7,52.9,58.0,53.1,47.0,99,83,55,29.66,29.51,10,3,0,1.33
2013-6-15,79.2,62.6,51.7,58.0,44.4,-99.9,100,63,25,29.86,29.66,6,-34,0,0.00
2013-6-16,77.9,65.4,51.4,63.0,56.6,51.0,100,76,44,29.86,29.65,5,1,0,0.00
2013-6-17,84.9,70.5,58.3,67.0,62.7,58.0,100,79,47,29.83,29.69,8,1,0,0.04
2013-6-18,79.4,64.4,58.1,67.0,60.1,56.0,100,88,56,29.86,29.77,8,2,0,0.08
2013-6-19,73.7,64.0,55.0,58.0,52.2,44.0,99,70,37,30.06,29.79,6,2,0,0.03
2013-6-20,80.3,64.8,50.4,59.0,53.0,46.0,100,70,31,30.18,30.06,4,0,0,0.00
2013-6-21,82.4,68.3,55.1,65.0,58.8,53.0,96,74,53,30.19,30.11,8,1,0,0.00
2013-6-22,82.4,69.2,58.4,64.0,58.6,54.0,95,71,45,30.15,30.05,5,0,0,0.00
2013-6-23,86.3,74.0,63.5,71.0,66.2,62.0,96,78,55,30.09,29.94,4,1,0,0.00
2013-6-24,92.9,79.9,68.9,76.0,70.6,66.0,100,76,48,29.95,29.78,4,0,0,0.00
2013-6-25,91.6,77.8,66.8,71.0,68.4,66.0,97,75,46,29.84,29.65,7,0,0,0.00
2013-6-26,89.7,76.5,67.9,74.0,70.1,67.0,99,82,49,29.76,29.64,6,0,0,0.01
2013-6-27,70.3,66.3,64.3,68.0,65.8,64.0,100,98,90,29.77,29.66,6,1,0,0.06
2013-6-28,76.0,70.5,64.8,73.0,69.9,65.0,100,98,86,29.66,29.44,9,1,0,1.03
2013-6-29,80.5,72.8,69.8,72.0,69.9,67.0,100,91,69,29.66,29.44,6,1,0,0.01
2013-6-30,78.8,73.0,69.8,72.0,70.2,68.0,100,91,74,29.86,29.65,4,0,0,0.21
2013-7-1,80.3,73.4,70.6,75.0,72.5,71.0,100,97,82,30.01,29.86,5,1,0,0.19
2013-7-2,82.0,75.0,71.5,75.0,72.7,71.0,100,92,76,30.11,30.01,5,1,0,0.00
2013-7-3,87.0,76.8,69.8,76.0,72.1,70.0,100,86,65,30.13,30.06,4,0,0,0.01
2013-7-4,90.3,80.5,71.5,77.0,74.0,72.0,100,82,60,30.12,30.02,4,0,0,0.00
2013-7-5,91.8,81.6,72.3,77.0,73.5,71.0,97,78,55,30.08,29.96,3,0,0,0.00
2013-7-6,92.3,81.4,72.0,77.0,73.3,70.0,99,78,50,30.00,29.88,5,0,0,0.00
2013-7-7,93.8,78.7,70.3,76.0,73.0,70.0,100,85,49,29.93,29.81,6,0,0,0.75
2013-7-8,89.3,77.1,67.6,77.0,72.2,67.0,100,86,61,29.96,29.83,7,1,0,0.00
2013-7-9,74.9,69.8,66.0,69.0,67.3,66.0,100,92,80,30.01,29.94,6,1,0,0.00
2013-7-10,83.8,74.9,68.3,78.0,72.5,68.0,100,92,71,29.98,29.73,6,1,0,0.19
2013-7-11,78.8,74.4,69.9,75.0,73.2,69.0,100,96,84,29.81,29.70,5,0,0,0.90
2013-7-12,73.5,69.9,65.6,71.0,65.0,61.0,100,85,70,30.09,29.82,9,2,0,0.00
2013-7-13,80.5,70.3,65.2,72.0,68.7,65.0,100,95,74,30.21,30.09,5,1,0,0.44
2013-7-14,89.3,78.5,71.1,78.0,73.6,71.0,100,86,59,30.21,30.10,4,0,0,0.00
2013-7-15,91.6,80.7,71.3,77.0,72.5,69.0,100,79,50,30.11,30.01,5,0,0,0.00
2013-7-16,92.7,79.8,68.6,73.0,70.1,66.0,100,76,43,30.07,30.01,7,1,0,0.05
2013-7-17,91.2,78.1,68.4,76.0,70.7,68.0,100,80,55,30.09,29.94,8,0,0,0.00
2013-7-18,91.4,81.3,72.8,77.0,72.5,69.0,94,76,54,29.93,29.86,9,1,0,0.00
2013-7-19,94.7,83.2,74.4,80.0,75.6,73.0,100,80,51,29.86,29.66,9,1,0,0.00
2013-7-20,91.2,81.3,71.8,78.0,75.5,72.0,100,84,57,29.70,29.56,8,1,0,0.22
2013-7-21,82.2,74.6,68.3,73.0,68.2,62.0,100,82,51,29.90,29.71,5,1,0,0.01
2013-7-22,82.4,73.5,65.8,71.0,68.1,66.0,100,84,59,29.91,29.80,6,2,0,0.00
2013-7-23,83.4,75.1,70.1,78.0,73.0,69.0,100,94,74,29.79,29.45,6,1,0,0.28
2013-7-24,86.3,77.4,70.3,75.0,69.9,57.0,100,79,59,29.83,29.49,8,1,0,0.01
2013-7-25,71.1,63.5,61.2,61.0,57.6,53.0,97,82,62,29.98,29.83,11,3,0,0.08
2013-7-26,69.1,64.9,62.4,68.0,64.4,61.0,100,98,94,29.94,29.83,7,2,0,0.63
2013-7-27,82.6,71.1,61.3,73.0,65.4,61.0,100,84,50,29.98,29.92,4,0,0,0.01
2013-7-28,78.1,71.8,67.6,72.0,69.6,67.0,100,93,76,29.92,29.87,6,1,0,0.12
2013-7-29,81.8,72.8,66.1,74.0,69.9,66.0,100,91,71,29.95,29.89,5,0,0,0.04
2013-7-30,82.8,71.8,60.7,70.0,61.8,55.0,100,74,40,30.00,29.94,9,0,0,0.00
2013-7-31,82.6,70.1,58.7,64.0,61.0,58.0,100,76,46,30.05,29.96,6,1,0,0.00
2013-8-1,79.9,69.6,61.3,69.0,63.1,60.0,100,82,51,29.97,29.81,7,1,0,0.06
2013-8-2,83.0,71.1,63.2,73.0,65.6,62.0,100,85,52,29.80,29.71,4,0,0,0.32
2013-8-3,74.9,69.9,66.1,67.0,65.8,63.0,100,87,73,29.79,29.70,5,0,0,0.00
2013-8-4,80.7,67.9,56.5,64.0,59.5,55.0,100,78,43,29.79,29.68,2,0,0,0.01
2013-8-5,75.6,63.8,52.8,58.0,51.9,40.0,100,70,30,29.95,29.80,5,1,0,0.00
2013-8-6,79.4,64.2,48.0,57.0,51.8,48.0,100,69,36,30.07,29.95,5,0,0,0.00
2013-8-7,78.5,65.6,52.8,68.0,55.5,51.0,100,74,41,30.11,30.05,7,1,0,0.00
2013-8-8,80.5,70.9,61.8,70.0,65.8,54.0,96,84,69,30.06,29.94,5,1,0,0.05
2013-8-9,74.0,73.0,71.8,74.0,72.2,70.0,100,97,90,29.97,29.69,9,1,0,1.10
2013-8-10,83.0,73.6,60.5,73.0,65.0,57.0,100,77,50,29.92,29.71,5,0,0,0.00
2013-8-11,79.6,66.9,52.8,60.0,56.3,51.0,100,72,39,30.00,29.92,2,0,0,0.00
2013-8-12,81.6,69.4,59.2,67.0,62.3,59.0,100,81,49,29.95,29.84,5,0,0,0.00
2013-8-13,72.0,66.8,61.3,70.0,64.9,61.0,100,93,76,29.85,29.61,5,0,0,0.01
2013-8-14,74.7,66.0,58.0,64.0,56.9,52.0,100,75,48,29.87,29.58,6,1,0,0.01
2013-8-15,77.6,64.2,50.7,58.0,53.5,47.0,100,72,36,30.03,29.88,4,0,0,0.00
2013-8-16,79.8,66.3,53.1,60.0,56.4,51.0,100,74,38,30.11,30.03,4,0,0,0.00
2013-8-17,79.9,67.3,53.5,61.0,57.6,54.0,100,74,45,30.19,30.11,7,1,0,0.00
2013-8-18,78.8,66.7,56.3,65.0,60.2,54.0,100,82,43,30.19,30.01,5,0,0,0.01
2013-8-19,82.4,68.5,55.3,66.0,61.1,55.0,100,80,46,30.01,29.87,5,0,0,0.01
2013-8-20,85.9,73.2,62.0,67.0,63.4,58.0,99,74,45,30.00,29.89,1,0,0,0.00
2013-8-21,88.2,73.6,60.7,69.0,64.9,61.0,100,77,43,30.06,29.95,5,0,0,0.00
2013-8-22,84.9,72.2,63.4,73.0,69.0,63.0,100,90,66,29.96,29.76,6,0,0,0.06
2013-8-23,78.3,70.1,58.0,70.0,60.2,51.0,100,74,40,30.00,29.73,7,1,0,0.00
2013-8-24,74.4,64.0,51.0,57.0,48.5,37.0,97,62,27,30.25,30.01,8,1,0,0.00
2013-8-25,82.8,65.4,48.6,59.0,53.1,48.0,100,70,30,30.28,30.12,6,0,0,0.00
2013-8-26,79.6,70.2,60.9,67.0,63.1,56.0,90,79,58,30.12,29.80,4,0,0,0.00
2013-8-27,78.3,70.9,64.3,71.0,68.2,64.0,100,92,65,29.80,29.74,5,0,0,0.52
2013-8-28,82.0,69.2,61.5,72.0,65.0,62.0,100,88,60,29.88,29.77,6,1,0,0.00
2013-8-29,65.8,63.6,58.9,66.0,62.9,58.0,100,97,90,29.97,29.86,6,1,0,0.03
2013-8-30,78.1,67.0,58.1,69.0,63.7,58.0,100,90,69,29.94,29.76,2,0,0,0.00
2013-8-31,80.3,72.8,66.9,74.0,70.5,67.0,100,92,79,29.77,29.72,6,0,0,0.00
2013-9-1,78.8,73.4,70.4,76.0,72.2,70.0,100,96,86,29.81,29.73,5,0,0,0.13
2013-9-2,81.2,73.7,71.8,76.0,72.9,71.0,100,97,79,29.79,29.63,9,1,0,0.23
2013-9-3,81.2,72.3,65.0,73.0,70.5,65.0,100,94,69,29.73,29.60,2,0,0,0.04
2013-9-4,79.8,67.6,56.7,65.0,59.8,55.0,100,79,44,29.84,29.72,6,0,0,0.00
2013-9-5,69.8,61.4,50.2,65.0,58.1,50.0,100,90,69,30.04,29.79,9,1,0,0.05
2013-9-6,68.3,55.6,43.9,51.0,46.7,40.0,100,76,35,30.15,30.03,6,0,0,0.00
2013-9-7,76.8,61.1,45.1,58.0,52.2,45.0,100,76,43,30.02,29.80,7,0,0,0.00
2013-9-8,76.5,65.4,49.4,64.0,54.3,39.0,97,70,35,30.00,29.66,12,1,0,0.00
2013-9-9,69.4,55.7,40.5,53.0,46.9,40.0,99,75,44,30.16,30.00,6,0,0,0.00
2013-9-10,74.9,66.0,54.4,69.0,62.0,52.0,96,87,76,30.09,29.96,8,1,0,0.00
2013-9-11,92.3,77.8,68.4,77.0,71.7,68.0,100,83,57,30.00,29.88,5,0,0,0.00
2013-9-12,82.8,74.5,69.1,73.0,70.1,69.0,99,87,68,29.90,29.61,7,1,0,0.01
2013-9-13,80.1,69.2,58.7,70.0,66.7,58.0,100,92,64,29.65,29.48,10,0,0,0.29
2013-9-14,68.1,61.0,52.8,59.0,55.4,52.0,98,83,62,29.97,29.66,4,0,0,0.00
2013-9-15,71.3,58.1,46.2,56.0,52.0,46.0,100,82,51,30.08,29.97,4,0,0,0.00
2013-9-16,65.0,56.9,51.4,60.0,53.6,39.0,100,89,63,30.13,29.94,4,0,0,0.03
2013-9-17,59.6,50.4,41.6,44.0,39.0,33.0,97,68,39,30.32,30.14,8,2,0,0.00
2013-9-18,73.2,54.9,38.0,50.0,44.6,38.0,100,74,32,30.25,30.07,4,0,0,0.00
2013-9-19,78.6,60.8,45.2,57.0,51.4,45.0,100,76,36,30.07,29.95,2,0,0,0.00
2013-9-20,80.7,62.4,47.9,59.0,53.0,48.0,100,76,35,30.00,29.91,5,0,0,0.00
2013-9-21,74.0,65.9,53.8,66.0,61.2,54.0,100,86,64,29.95,29.66,8,2,0,0.00
2013-9-22,72.1,64.9,50.4,68.0,60.1,48.0,100,85,60,29.73,29.55,8,1,0,0.45
2013-9-23,64.0,52.8,43.1,49.0,43.9,41.0,98,75,46,29.91,29.73,8,1,0,0.01
2013-9-24,65.3,52.2,39.2,49.0,43.3,39.0,100,75,42,29.91,29.73,7,1,0,0.00
2013-9-25,66.1,54.1,41.9,51.0,46.7,42.0,100,79,52,29.89,29.80,7,1,0,0.00
2013-9-26,63.9,56.5,51.0,51.0,48.8,45.0,96,77,54,30.02,29.88,9,1,0,0.00
2013-9-27,64.5,56.9,45.8,53.0,50.5,45.0,98,81,57,30.17,30.02,7,1,0,0.00
2013-9-28,72.5,56.0,41.6,56.0,49.6,42.0,100,82,46,30.23,30.16,8,1,0,0.00
2013-9-29,66.8,53.5,42.3,58.0,47.9,42.0,100,84,46,30.17,30.02,7,1,0,0.00
2013-9-30,67.4,56.7,44.6,57.0,51.9,44.0,100,86,59,30.02,29.88,6,1,0,0.00
2013-10-1,75.8,57.9,41.1,55.0,48.9,41.0,100,76,39,29.88,29.76,6,1,0,0.00
2013-10-2,80.7,64.8,51.1,62.0,57.4,51.0,100,80,49,29.86,29.74,5,0,0,0.00
2013-10-3,78.8,62.7,49.2,57.0,52.0,43.0,100,74,29,29.99,29.87,1,0,0,0.00
2013-10-4,65.2,55.5,47.0,59.0,54.2,47.0,100,95,68,30.00,29.94,3,0,0,1.30
2013-10-5,68.1,60.8,56.2,62.0,57.3,55.0,100,89,67,30.03,29.96,6,1,0,0.01
2013-10-6,60.4,59.0,57.6,60.0,57.4,54.0,99,94,87,30.12,30.03,6,1,0,0.04
2013-10-7,75.3,69.0,59.2,71.0,67.3,59.0,100,94,81,30.03,29.76,7,2,0,0.08
2013-10-8,67.1,57.7,45.8,60.0,47.3,41.0,98,71,39,30.27,29.82,9,1,0,0.00
2013-10-9,61.5,51.7,42.8,47.0,44.4,42.0,99,78,53,30.36,30.26,8,2,0,0.00
2013-10-10,63.4,54.8,43.8,56.0,51.0,43.0,99,87,72,30.26,30.07,9,2,0,0.00
2013-10-11,66.1,58.1,48.9,56.0,53.4,48.0,98,85,64,30.06,30.00,10,2,0,0.00
2013-10-12,62.1,56.4,49.1,58.0,52.8,48.0,99,88,79,30.28,30.04,9,2,0,0.00
2013-10-13,59.3,51.8,37.8,49.0,45.5,37.0,97,80,63,30.34,30.26,8,2,0,0.00
2013-10-14,64.3,47.8,31.5,48.0,41.2,31.0,100,81,43,30.32,30.17,2,0,0,0.00
2013-10-15,70.1,53.9,40.1,52.0,46.4,40.0,100,79,42,30.19,30.09,6,1,0,0.00
2013-10-16,63.1,53.6,40.8,58.0,52.0,41.0,100,94,79,30.09,29.83,8,1,0,0.00
2013-10-17,70.3,61.3,54.1,61.0,58.5,54.0,100,91,71,29.83,29.66,4,0,0,0.00
2013-10-18,70.4,61.6,44.6,63.0,52.1,43.0,99,74,42,29.83,29.54,7,1,0,0.00
2013-10-19,66.1,52.8,38.5,49.0,43.3,38.0,98,74,37,29.90,29.68,4,0,0,0.00
2013-10-20,64.0,53.4,37.6,54.0,41.1,31.0,100,68,30,29.94,29.62,5,1,0,0.00
2013-10-21,68.1,49.8,32.4,45.0,38.5,31.0,96,70,33,30.03,29.93,2,0,0,0.00
2013-10-22,70.3,55.8,43.2,54.0,47.2,39.0,97,75,43,29.93,29.62,4,0,0,0.00
2013-10-23,52.5,44.4,34.9,42.0,38.2,34.0,97,80,51,29.71,29.51,1,0,0,0.00
2013-10-24,54.5,42.5,33.5,40.0,30.5,24.0,97,67,32,29.81,29.55,5,0,0,0.00
2013-10-25,53.2,38.8,28.1,35.0,28.5,26.0,94,69,43,30.08,29.81,4,0,0,0.00
2013-10-26,56.5,42.7,27.5,38.0,31.3,25.0,96,68,31,30.08,29.81,8,1,0,0.00
2013-10-27,58.1,46.9,33.8,44.0,35.3,29.0,98,67,40,29.98,29.74,6,0,0,0.00
2013-10-28,61.0,44.7,28.8,37.0,30.9,23.0,95,62,34,30.25,29.99,6,1,0,0.00
2013-10-29,52.5,39.0,28.4,34.0,28.0,21.0,94,67,31,30.34,30.25,5,1,0,0.00
2013-10-30,52.6,39.8,28.5,47.0,37.9,27.0,98,93,74,30.29,30.11,3,0,0,0.01
2013-10-31,63.2,50.3,33.7,61.0,48.3,34.0,100,93,77,30.16,29.76,7,1,0,0.00
2013-11-1,69.8,64.0,57.8,64.0,59.5,53.0,99,85,70,29.72,29.42,8,3,0,0.00
2013-11-2,67.6,57.2,51.1,53.0,48.4,42.0,96,75,39,29.63,29.50,4,0,0,0.00
2013-11-3,51.9,42.4,32.5,46.0,35.6,17.0,94,78,48,30.30,29.62,9,2,0,0.00
2013-11-4,43.8,33.6,24.2,27.0,21.9,18.0,92,64,45,30.62,30.30,12,2,0,0.00
2013-11-5,50.5,36.7,24.8,34.0,27.8,22.0,93,73,39,30.62,30.43,8,0,0,0.00
2013-11-6,60.5,48.4,34.1,52.0,42.1,31.0,99,81,51,30.43,29.98,6,1,0,0.00
2013-11-7,64.2,54.9,38.8,63.0,53.9,37.0,100,96,85,29.97,29.58,6,1,0,0.04
2013-11-8,49.9,39.0,29.3,38.0,29.6,21.0,98,72,43,30.02,29.74,8,1,0,0.00
2013-11-9,45.5,36.9,26.7,31.0,24.9,20.0,88,64,38,30.12,29.97,4,0,0,0.00
2013-11-10,55.1,45.1,38.6,48.0,38.6,30.0,99,79,57,29.96,29.64,6,0,0,0.02
2013-11-11,53.6,45.5,36.9,40.0,30.2,23.0,81,57,31,30.02,29.78,6,1,0,0.00
2013-11-12,50.5,37.1,28.4,41.0,27.6,15.0,96,70,52,30.09,29.80,8,2,0,0.08
2013-11-13,38.3,29.1,24.2,17.0,14.2,10.0,70,55,36,30.18,30.09,8,2,0,0.00
2013-11-14,52.5,39.5,24.7,28.0,20.6,14.0,68,49,27,30.11,29.96,6,1,0,0.00
2013-11-15,59.9,46.4,34.6,42.0,29.6,17.0,96,56,27,30.12,30.04,5,1,0,0.00
2013-11-16,61.2,45.3,32.4,41.0,34.7,30.0,94,70,36,30.23,30.11,3,0,0,0.00
2013-11-17,60.9,48.3,31.5,59.0,45.8,30.0,100,92,57,30.23,29.78,9,2,0,0.01
2013-11-18,66.4,58.2,46.2,64.0,51.5,35.0,100,80,48,29.76,29.46,7,1,0,0.18
2013-11-19,46.5,40.3,31.9,35.0,22.8,16.0,68,51,35,30.18,29.58,8,3,0,0.00
2013-11-20,41.6,31.1,21.9,18.0,14.1,8.0,77,52,27,30.52,30.19,6,1,0,0.00
2013-11-21,48.8,34.1,19.9,31.0,22.3,16.0,86,65,37,30.55,30.31,4,0,0,0.00
2013-11-22,51.4,44.9,37.8,51.0,43.4,31.0,100,94,76,30.30,29.73,0,0,0,0.06
2013-11-23,47.7,41.8,29.7,47.0,28.1,13.0,100,62,28,29.79,29.70,9,2,0,0.00
2013-11-24,29.7,25.0,20.5,17.0,3.1,-9.0,61,41,21,30.10,29.70,13,4,0,0.00
2013-11-25,33.4,24.6,14.6,20.0,1.8,-8.0,69,40,17,30.28,30.11,7,1,0,0.00
2013-11-26,44.5,38.4,29.3,45.0,27.0,17.0,100,66,41,30.24,29.94,6,1,0,0.09
2013-11-27,62.0,53.9,37.9,62.0,53.6,37.0,100,99,95,29.93,29.10,21,4,0,0.31
2013-11-28,37.3,31.2,21.3,36.0,18.2,6.0,95,61,34,30.36,29.39,12,2,0,0.00
2013-11-29,36.0,27.0,18.8,19.0,12.9,7.0,77,57,37,30.64,30.36,4,0,0,0.00
2013-11-30,35.9,26.8,15.7,25.0,14.3,8.0,74,61,39,30.68,30.36,6,1,0,0.00
2013-12-1,49.2,42.0,32.7,46.0,37.8,25.0,100,85,73,30.35,29.90,9,2,0,0.00
2013-12-2,40.9,39.0,37.8,41.0,38.4,36.0,100,97,91,29.90,29.82,3,0,0,0.00
2013-12-3,48.9,38.5,30.4,38.0,34.5,30.0,100,87,53,29.85,29.74,5,1,0,0.00
2013-12-4,45.4,34.2,26.3,36.0,28.7,26.0,100,83,50,30.11,29.86,4,0,0,0.00
2013-12-5,55.1,44.4,28.5,55.0,42.6,27.0,100,93,79,30.12,29.84,11,1,0,0.00
2013-12-6,56.7,50.4,38.0,57.0,49.6,37.0,100,97,86,30.03,29.78,5,1,0,0.01
2013-12-7,42.3,34.2,25.8,37.0,29.3,21.0,98,83,54,30.36,29.99,7,1,0,0.00
2013-12-8,31.9,27.8,20.0,23.0,17.3,14.0,90,66,49,30.50,30.36,4,0,0,0.00
2013-12-9,41.8,36.0,28.8,42.0,35.2,19.0,100,97,64,30.39,29.79,7,1,0,0.02
2013-12-10,34.0,30.2,23.6,34.0,30.1,22.0,100,100,95,29.93,29.74,5,0,0,0.00
2013-12-11,32.1,25.9,20.8,24.0,20.7,17.0,96,81,63,30.15,29.93,4,1,0,0.00
2013-12-12,26.6,19.6,11.2,18.0,9.2,1.0,89,67,35,30.19,30.01,8,1,0,0.00
2013-12-13,31.6,22.1,12.6,14.0,10.5,6.0,79,62,43,30.27,29.93,5,1,0,0.00
2013-12-14,30.0,19.6,14.0,30.0,11.1,-1.0,98,71,48,30.50,30.04,9,2,0,0.00
2013-12-15,39.8,30.6,23.6,40.0,29.5,21.0,100,95,83,30.01,29.25,16,2,0,0.23
2013-12-16,29.8,23.6,12.6,22.0,13.2,6.0,92,67,42,30.13,29.67,6,1,0,0.00
2013-12-17,30.3,17.7,4.8,30.0,14.2,1.0,98,86,70,30.19,29.82,5,1,0,0.00
2013-12-18,34.6,26.2,19.4,22.0,19.3,16.0,92,76,50,30.01,29.73,8,2,0,0.00
2013-12-19,44.5,33.4,22.4,29.0,23.8,18.0,84,69,52,30.04,29.88,7,1,0,0.00
2013-12-20,52.6,41.3,31.8,40.0,33.3,27.0,86,74,55,30.04,29.84,6,1,0,0.00
2013-12-21,59.6,51.2,45.1,52.0,47.1,39.0,99,86,66,29.90,29.80,5,1,0,0.00
2013-12-22,60.4,54.1,40.5,59.0,52.7,40.0,99,95,80,29.91,29.70,7,2,0,0.00
2013-12-23,41.2,38.6,34.7,41.0,38.7,35.0,100,100,99,29.98,29.86,7,1,0,0.11
2013-12-24,38.5,33.4,26.3,39.0,23.2,16.0,100,67,48,30.11,29.94,7,1,0,0.00
2013-12-25,26.9,20.3,14.3,20.0,5.8,-1.0,79,55,36,30.46,30.11,9,2,0,0.00
2013-12-26,39.1,29.3,16.9,37.0,25.6,11.0,98,86,74,30.42,29.97,13,2,0,0.00
2013-12-27,36.0,27.9,20.6,27.0,21.5,17.0,97,78,53,30.19,30.11,3,0,0,0.00
2013-12-28,48.8,34.6,24.1,30.0,24.8,20.0,90,69,42,30.15,29.91,6,1,0,0.00
2013-12-29,43.9,38.3,30.0,44.0,35.9,25.0,100,91,75,29.96,29.25,10,1,0,0.24
2013-12-30,40.5,33.1,21.6,39.0,26.5,11.0,100,79,50,30.05,29.39,6,1,0,0.07
2013-12-31,26.1,20.4,16.5,15.0,6.6,-5.0,84,57,38,30.10,29.95,7,1,0,0.00
2014-1-1,29.5,22.1,14.4,14.0,8.9,5.0,76,58,38,30.29,30.11,6,1,0,0.00
2014-1-2,28.8,25.5,21.4,27.0,22.7,12.0,96,90,63,30.27,29.64,13,5,0,0.00